Home > Weather > Rosso > Past weeks

Flag for Mauritania Past Weather in Rosso, Mauritania — Yesterday and Last 2 Weeks

Now
77 °F

Passing clouds.


Feels Like: 78 °F
Forecast: 77 / 101 °F
Wind: 5 mph from Northwest

Location: Saint Airport-Louis

Current Time: Jul 1, 2016 at 8:14:39 AM

Latest Report: Jul 1, 2016 at 7:00 AM


Visibility: N/A

Pressure: 29.95 "Hg

Humidity: 89%

Dew Point: 73 °F

Location of RossoLocation

Past Weather in Rosso — Graph

°F

Rosso Temperature Yesterday

Maximum temperature yesterday: 91 °F (at 4:00 PM)
Minimum temperature yesterday: 75 °F (at 11:00 AM)
Average temperature yesterday: 81 °F

High & Low Weather Summary for the Past Weeks

 TemperatureHumidityPressure
High91 °F (Jun 21, 12:00 PM)100% (Jun 25, 6:00 AM)30.09 "Hg (Jun 25, 6:00 AM)
Low70 °F (Jun 17, 6:00 AM)52% (Jun 21, 12:00 PM)29.74 "Hg (Jun 21, 4:00 PM)
Average78 °F81%29.91 "Hg
* Reported Jun 16 7:00 AM — Jul 1 7:00 AM, Rosso, Weather by CustomWeather, © 2016

Note: Actual official high and low records may vary slightly from our data, if they occured in-between our weather recording intervals... More about our weather records

Advertising

Rosso Weather History for the Previous 24 Hours

Scroll right to see more
 ConditionsComfort  
Time TempWeatherWind HumidityBarometerVisibility
7:00 AM
Fri, Jul 1
77 °FPassing clouds.5 mph89%29.95 "HgN/A
6:00 AM77 °FPassing clouds.7 mph89%29.95 "HgN/A
5:00 AM77 °FPassing clouds.7 mph89%29.95 "HgN/A
4:00 AM77 °FPassing clouds.7 mph94%29.95 "HgN/A
3:00 AM77 °FPassing clouds.7 mph94%29.92 "HgN/A
2:00 AM77 °FPassing clouds.7 mph94%29.95 "HgN/A
1:00 AM79 °FPassing clouds.7 mph89%29.98 "HgN/A
12:00 AM79 °FPassing clouds.9 mph89%29.98 "HgN/A
11:00 PM
Thu, Jun 30
81 °FPassing clouds.7 mph84%29.98 "HgN/A
10:00 PM81 °FPassing clouds.7 mph84%29.98 "HgN/A
9:00 PM81 °FPassing clouds.7 mph84%29.95 "HgN/A
8:00 PM81 °FPassing clouds.7 mph84%29.95 "HgN/A
7:00 PM86 °FPassing clouds.9 mph75%29.92 "HgN/A
6:00 PM86 °FPassing clouds.9 mph75%29.92 "HgN/A
5:00 PM88 °FPassing clouds.7 mph66%29.89 "HgN/A
4:00 PM91 °FPassing clouds.7 mph59%29.92 "HgN/A
3:00 PM90 °FPassing clouds.9 mph59%29.95 "HgN/A
2:00 PM90 °FPassing clouds.9 mph63%29.92 "HgN/A
1:00 PM84 °FSunny.9 mph74%29.92 "Hg10 mi
12:00 PM79 °FWarm.N/A89%29.92 "HgN/A
11:00 AM75 °FLight rain. More clouds than sun.5 mph94%30.01 "HgN/A
10:00 AM79 °FLight rain. Partly sunny.7 mph79%30.07 "HgN/A
9:00 AM79 °FLight rain. Partly sunny.7 mph84%30.09 "HgN/A
8:00 AM79 °FLight rain. Partly sunny.7 mph89%30.07 "HgN/A
Weather by CustomWeather, © 2016

See weather overviewHow to use our weather pages